Location: Oak Glen
(34.0495°N, 116.9470°E)
Time: 04:08:06
(UTC-07:00)

N. Korean satellite - Pass Details

Date: 11 October 2017
Orbit: 459 x 517 km, 97.2° (Epoch: 18 October)

Event Time Altitude Azimuth Distance (km) Brightness Sun altitude
Rises 03:21:30 0° 169° (S) 2,569 10.2 -8.7°
Reaches altitude 10° 03:23:35 10° 170° (S) 1,681 9.2 -9.1°
Maximum altitude 03:27:12 84° 256° (WSW) 494 6.6 -9.9°
Drops below altitude 10° 03:30:46 10° 347° (NNW) 1,660 9.4 -10.6°
Sets 03:32:49 0° 348° (NNW) 2,533 10.3 -11.0°
